Flag for United Kingdom Weather past 2 weeks in King's Lynn, England, United Kingdom

Now
48 °F

Passing clouds.


Feels Like: 39 °F
Forecast: 39 / 48 °F
Wind: 32 mph from West

Location: Marham

Current Time: Mar 31, 2015 at 8:15:35 AM

Latest Report: Mar 31, 2015 at 6:50 AM


Visibility: N/A

Pressure: 29.39 "Hg

Humidity: 66%

Dew point: 37 °F

Location of King's LynnLocation

Historic Weather in King's Lynn — Graph

°F

King's Lynn temperature yesterday

Maximum temperature yesterday: 50 °F (at 1:50 PM)
Minimum temperature yesterday: 39 °F (at 4:50 AM)
Average temperature yesterday: 45 °F

Past Weeks' High & Low Weather Summary

 TemperatureHumidityPressure
High57 °F (Mar 28, 11:50 AM)100% (Mar 17, 1:50 AM)30.54 "Hg (Mar 17, 1:50 AM)
Low30 °F (Mar 23, 2:50 AM)44% (Mar 27, 3:50 PM)29.15 "Hg (Mar 29, 1:50 PM)
Average43 °F79%30.02 "Hg
* Reported Mar 16 5:50 AM — Mar 31 6:50 AM, King's Lynn, Weather by CustomWeather, © 2015

Note: Actual official high and low records may vary slightly from our data, if they occured in-between our weather recording intervals... More about our weather records

Advertising

King's Lynn weather history for previous 24 hours

 ConditionsComfort  
Time TempWeatherWind HumidityBarometerVisibility
6:50 AM
Tue, Mar 31
48 °FPassing clouds.32 mph66%29.39 "HgN/A
5:50 AM48 °FPassing clouds.35 mph66%29.30 "HgN/A
4:50 AM50 °FPassing clouds.30 mph67%29.27 "HgN/A
3:50 AM50 °FPassing clouds.36 mph71%29.27 "HgN/A
2:50 AM52 °FSprinkles. Partly cloudy.33 mph82%29.24 "HgN/A
1:50 AM52 °FRain showers. Passing clouds.29 mph94%29.24 "Hg2 mi
12:50 AM52 °FPartly cloudy.28 mph88%29.24 "HgN/A
11:50 PM
Mon, Mar 30
50 °FPartly cloudy.22 mph94%29.30 "HgN/A
10:50 PM46 °FRain. Mostly cloudy.20 mph100%29.36 "Hg3 mi
9:50 PM45 °FRain. Mostly cloudy.20 mph100%29.45 "Hg4 mi
8:50 PM45 °FRain. Mostly cloudy.17 mph93%29.50 "Hg4 mi
7:50 PM45 °FLight rain. Mostly cloudy.16 mph87%29.56 "HgN/A
6:50 PM46 °FLight rain. More clouds than sun.21 mph66%29.65 "HgN/A
5:50 PM48 °FOvercast.24 mph58%29.71 "HgN/A
4:50 PM50 °FOvercast.17 mph47%29.74 "HgN/A
3:50 PM48 °FOvercast.16 mph46%29.77 "HgN/A
2:50 PM48 °FPartly sunny.20 mph46%29.77 "HgN/A
1:50 PM50 °FPartly sunny.21 mph47%29.80 "HgN/A
12:50 PM48 °FPartly sunny.21 mph50%29.80 "HgN/A
11:50 AM48 °FPartly sunny.24 mph54%29.80 "HgN/A
10:50 AM46 °FPartly sunny.21 mph57%29.77 "HgN/A
9:50 AM45 °FPartly sunny.23 mph57%29.74 "HgN/A
8:50 AM43 °FScattered clouds.23 mph61%29.71 "HgN/A
Weather by CustomWeather, © 2015

See weather overviewHow to use our weather pages